Location: Melbourne
(37.8170°S, 144.9670°E)
Time: 07:05:51
(UTC+10:00)

ISS - All Passes

Search period start: 24 April 2014 00:00
Search period end: 04 May 2014 00:00
Orbit: 413 x 418 km, 51.7° (Epoch: 23 April)

Date Brightness Start Highest point End Pass type
(mag) Time Alt. Az. Time Alt. Az. Time Alt. Az.
24 Apr - 00:16:30 10° N 00:18:52 18° NE 00:21:15 10° E night (unlit)
24 Apr - 01:52:06 10° WNW 01:55:21 43° SW 01:58:38 10° SE night (unlit)
24 Apr - 03:31:33 10° SW 03:32:47 12° SSW 03:34:02 10° S night (unlit)
24 Apr - 06:46:19 10° SSW 06:48:43 18° SSE 06:51:07 10° ESE daylight
24 Apr - 08:22:23 10° SW 08:25:46 71° NW 08:29:06 10° NE daylight
25 Apr - 01:03:12 10° NW 01:06:34 78° SW 01:09:59 10° SE night (unlit)
25 Apr - 02:41:44 10° WSW 02:43:46 15° SSW 02:45:48 10° SSE night (unlit)
25 Apr - 05:57:58 10° SSW 05:59:44 13° SSE 06:01:28 10° SE visible
25 Apr - 07:33:39 10° SW 07:37:01 62° SE 07:40:21 10° ENE daylight
25 Apr - 09:11:54 10° WNW 09:13:20 12° NW 09:14:45 10° NNW daylight
26 Apr - 00:14:30 10° NW 00:17:48 55° NE 00:21:08 10° ESE night (unlit)
26 Apr - 01:52:08 10° WSW 01:54:44 20° SSW 01:57:21 10° SSE night (unlit)
26 Apr - 05:09:50 10° S 05:10:36 11° SSE 05:11:23 10° SSE visible
26 Apr - 06:44:57 10° SW 06:48:07 36° SSE 06:51:16 10° ENE daylight
26 Apr - 08:22:00 10° WSW 08:24:41 22° NW 08:27:22 10° N daylight
26 Apr - 23:26:03 10° NNW 23:29:01 29° NE 23:32:00 10° ESE night (unlit)
27 Apr - 01:02:40 10° W 01:05:41 30° SSW 01:08:44 10° SSE night (unlit)
27 Apr - 05:56:17 10° SSW 05:59:05 23° SSE 06:01:53 10° E visible
27 Apr - 07:32:42 10° WSW 07:35:55 41° NW 07:39:05 10° NNE daylight
27 Apr - 22:38:06 10° NNE 22:40:14 16° NE 22:42:22 10° E night (unlit)
28 Apr - 00:13:21 10° WNW 00:16:38 48° SW 00:19:57 10° SE night (unlit)
28 Apr - 01:52:35 10° SW 01:54:01 12° SSW 01:55:26 10° S night (unlit)
28 Apr - 05:07:38 10° SSW 05:09:55 17° SSE 05:12:12 10° ESE visible
28 Apr - 06:43:36 10° SW 06:47:00 81° NW 06:50:21 10° NE daylight
28 Apr - 23:24:13 10° NW 23:27:35 89° SW 23:31:00 10° SE night (unlit)
29 Apr - 01:02:33 10° WSW 01:04:43 16° SSW 01:06:53 10° SSE night (unlit)
29 Apr - 04:19:02 10° S 04:20:37 13° SSE 04:22:12 10° SE visible
29 Apr - 05:54:36 10° SW 05:57:57 54° SE 06:01:15 10° ENE visible
29 Apr - 07:32:28 10° W 07:34:18 14° NW 07:36:07 10° NNW daylight
29 Apr - 22:35:17 10° NNW 22:38:32 47° NE 22:41:49 10° ESE night (unlit)
30 Apr - 00:12:41 10° W 00:15:24 22° SSW 00:18:07 10° SSE night (unlit)
30 Apr - 03:30:53 10° S 03:31:12 10° SSE 03:31:31 10° SSE visible
30 Apr - 05:05:39 10° SSW 05:08:45 32° SSE 05:11:49 10° E visible
30 Apr - 06:42:30 10° WSW 06:45:21 25° NW 06:48:11 10° N daylight
30 Apr - 21:46:40 10° N 21:49:29 25° NE 21:52:19 10° ESE night (unlit)
30 Apr - 23:22:59 10° W 23:26:05 33° SSW 23:29:12 10° SE night (unlit)
01 May - 01:03:10 10° SSW 01:03:37 10° SSW 01:04:04 10° S night (unlit)
01 May - 04:16:42 10° SSW 04:19:24 21° SSE 04:22:05 10° E visible
01 May - 05:52:59 10° WSW 05:56:16 48° NW 05:59:31 10° NNE visible
01 May - 20:58:39 10° NNE 21:00:25 14° NE 21:02:12 10° E night (unlit)
01 May - 22:33:26 10° WNW 22:36:45 56° SW 22:40:06 10° SE night (unlit)
02 May - 00:12:26 10° SW 00:14:03 13° SSW 00:15:41 10° S night (unlit)
02 May - 03:27:48 10° SSW 03:29:56 16° SSE 03:32:03 10° ESE night (unlit)
02 May - 05:03:39 10° SW 05:07:03 86° SE 05:10:25 10° NE visible
02 May - 21:44:04 10° NW 21:47:26 78° NE 21:50:50 10° SE night (unlit)
02 May - 23:22:09 10° WSW 23:24:28 17° SSW 23:26:48 10° SSE night (unlit)
03 May - 02:38:58 10° S 02:40:19 12° SSE 02:41:41 10° SE night (unlit)
03 May - 04:14:23 10° SW 04:17:41 47° SE 04:20:57 10° ENE visible
03 May - 05:51:53 10° W 05:54:05 16° NW 05:56:16 10° N visible
03 May - 20:54:57 10° NNW 20:58:06 39° NE 21:01:18 10° ESE night (unlit)
03 May - 22:32:04 10° W 22:34:53 24° SSW 22:37:43 10° SSE night (unlit)
